When you browse on this site, cookies collect data to enhance your experience and personalize the content and advertising you see.
Visit our Privacy Policy to learn more. By continuing to use the site, you agree to this use of cookies and data.
  • en France
  • Liste des pays
  • À 7 jours
  • Température de l'eau
  • Carte satellitaire
  • Carte météo
  • Widgets météo
  • user-avatar
    Se connecter

    Météo par heure à Ch'ŏngjin

    Ce jour, 17 Novembre, Samedi

    Heure Température Précipitation Vent Pression Humidité
    00:00 +1°C° 0 mm 3 m/s 767 mmHg 45%
    01:00 +1°C° 0 mm 2 m/s 767 mmHg 45%
    02:00 +1°C° 0 mm 2 m/s 767 mmHg 44%
    03:00 +1°C° 0 mm 2 m/s 767 mmHg 42%
    04:00 +1°C° 0 mm 2 m/s 767 mmHg 41%
    05:00 +1°C° 0 mm 2 m/s 767 mmHg 39%
    06:00 +1°C° 0 mm 2 m/s 768 mmHg 38%
    07:00 +2°C° 0 mm 2 m/s 768 mmHg 35%
    08:00 +3°C° 0 mm 2 m/s 768 mmHg 33%
    09:00 +4°C° 0 mm 2 m/s 768 mmHg 27%
    10:00 +5°C° 0 mm 2 m/s 767 mmHg 28%
    11:00 +7°C° 0 mm 3 m/s 767 mmHg 28%
    12:00 +8°C° 0 mm 3 m/s 766 mmHg 28%
    13:00 +8°C° 0 mm 3 m/s 766 mmHg 32%
    14:00 +8°C° 0 mm 3 m/s 766 mmHg 36%
    15:00 +8°C° 0 mm 3 m/s 765 mmHg 41%
    16:00 +7°C° 0 mm 3 m/s 765 mmHg 50%
    17:00 +4°C° 0 mm 3 m/s 765 mmHg 59%
    18:00 +4°C° 0 mm 2 m/s 766 mmHg 68%
    19:00 +4°C° 0.1 mm 2 m/s 766 mmHg 65%
    20:00 +4°C° 0.1 mm 2 m/s 766 mmHg 62%
    21:00 +4°C° 0.1 mm 2 m/s 766 mmHg 59%
    22:00 +4°C° 0 mm 2 m/s 765 mmHg 56%
    23:00 +4°C° 0 mm 2 m/s 765 mmHg 52%

    Demain, 18 Novembre, Dimanche

    Heure Température Précipitation Vent Pression Humidité
    00:00 +3°C° 0 mm 3 m/s 765 mmHg 49%
    01:00 +2°C° 0 mm 3 m/s 765 mmHg 47%
    02:00 +2°C° 0 mm 3 m/s 765 mmHg 45%
    03:00 +1°C° 0 mm 3 m/s 765 mmHg 43%
    04:00 +1°C° 0 mm 3 m/s 765 mmHg 42%
    05:00 +1°C° 0 mm 3 m/s 765 mmHg 40%
    06:00 +2°C° 0 mm 2 m/s 765 mmHg 39%
    07:00 +3°C° 0 mm 2 m/s 765 mmHg 38%
    08:00 +4°C° 0 mm 2 m/s 765 mmHg 36%
    09:00 +5°C° 0 mm 2 m/s 765 mmHg 34%
    10:00 +6°C° 0 mm 2 m/s 765 mmHg 34%
    11:00 +7°C° 0 mm 3 m/s 764 mmHg 33%
    12:00 +8°C° 0 mm 3 m/s 764 mmHg 33%
    13:00 +8°C° 0 mm 3 m/s 763 mmHg 35%
    14:00 +8°C° 0 mm 3 m/s 763 mmHg 37%
    15:00 +8°C° 0 mm 3 m/s 762 mmHg 39%
    16:00 +6°C° 0 mm 2 m/s 763 mmHg 46%
    17:00 +5°C° 0 mm 2 m/s 763 mmHg 53%
    18:00 +4°C° 0 mm 1 m/s 763 mmHg 60%
    19:00 +4°C° 0 mm 1 m/s 764 mmHg 59%
    20:00 +4°C° 0 mm 1 m/s 764 mmHg 58%
    21:00 +4°C° 0 mm 1 m/s 764 mmHg 57%
    22:00 +4°C° 0 mm 1 m/s 764 mmHg 56%
    23:00 +4°C° 0 mm 1 m/s 764 mmHg 56%

    Après-demain, 19 Novembre, Lundi

    Heure Température Précipitation Vent Pression Humidité
    00:00 +4°C° 0 mm 1 m/s 763 mmHg 56%
    01:00 +3°C° 0 mm 1 m/s 763 mmHg 58%
    02:00 +3°C° 0 mm 1 m/s 763 mmHg 60%
    03:00 +3°C° 0 mm 1 m/s 763 mmHg 62%
    04:00 +2°C° 0 mm 2 m/s 764 mmHg 61%
    05:00 +1°C° 0 mm 3 m/s 764 mmHg 59%
    06:00 +1°C° 0 mm 3 m/s 764 mmHg 58%
    07:00 0°C° 0 mm 4 m/s 764 mmHg 54%
    08:00 0°C° 0 mm 4 m/s 765 mmHg 50%
    09:00 +1°C° 0 mm 5 m/s 765 mmHg 47%
    10:00 +2°C° 0 mm 5 m/s 765 mmHg 43%
    11:00 +3°C° 0 mm 5 m/s 765 mmHg 39%
    12:00 +5°C° 0 mm 5 m/s 766 mmHg 35%
    13:00 +5°C° 0 mm 5 m/s 765 mmHg 35%
    14:00 +5°C° 0 mm 5 m/s 765 mmHg 34%
    15:00 +5°C° 0 mm 5 m/s 765 mmHg 33%
    16:00 +3°C° 0 mm 5 m/s 766 mmHg 39%
    17:00 +1°C° 0 mm 5 m/s 766 mmHg 44%
    18:00 0°C° 0 mm 5 m/s 767 mmHg 50%
    19:00 0°C° 0 mm 5 m/s 767 mmHg 51%
    20:00 0°C° 0 mm 4 m/s 767 mmHg 52%
    21:00 -1°C° 0 mm 4 m/s 767 mmHg 54%
    22:00 -1°C° 0 mm 4 m/s 767 mmHg 54%
    23:00 -1°C° 0 mm 4 m/s 768 mmHg 55%

    20 Novembre, Mardi

    Heure Température Précipitation Vent Pression Humidité
    00:00 0°C° 0 mm 3 m/s 768 mmHg 56%
    01:00 0°C° 0 mm 3 m/s 768 mmHg 57%
    02:00 +1°C° 0 mm 2 m/s 768 mmHg 58%
    03:00 -1°C° 0 mm 2 m/s 768 mmHg 59%
    04:00 -1°C° 0 mm 2 m/s 768 mmHg 58%
    05:00 -1°C° 0 mm 2 m/s 768 mmHg 58%
    06:00 +1°C° 0 mm 1 m/s 768 mmHg 57%
    07:00 +2°C° 0 mm 1 m/s 768 mmHg 53%
    08:00 +3°C° 0 mm 1 m/s 768 mmHg 48%
    09:00 +4°C° 0 mm 1 m/s 768 mmHg 44%
    10:00 +3°C° 0 mm 3 m/s 767 mmHg 44%
    11:00 +4°C° 0 mm 4 m/s 766 mmHg 43%
    12:00 +6°C° 0 mm 5 m/s 765 mmHg 43%
    13:00 +5°C° 0.4 mm 5 m/s 765 mmHg 54%
    14:00 +5°C° 0.4 mm 5 m/s 765 mmHg 64%
    15:00 +3°C° 0.4 mm 5 m/s 764 mmHg 75%
    16:00 +3°C° 0.2 mm 5 m/s 764 mmHg 77%
    17:00 +4°C° 0.2 mm 4 m/s 764 mmHg 79%
    18:00 +3°C° 0.2 mm 4 m/s 764 mmHg 81%
    19:00 +3°C° 0 mm 4 m/s 764 mmHg 80%
    20:00 +1°C° 0 mm 4 m/s 765 mmHg 80%
    21:00 0°C° 0 mm 4 m/s 765 mmHg 79%
    22:00 0°C° 0 mm 5 m/s 765 mmHg 76%
    23:00 -1°C° 0 mm 5 m/s 766 mmHg 73%

    21 Novembre, Mercredi

    Heure Température Précipitation Vent Pression Humidité
    00:00 -2°C° 0 mm 6 m/s 766 mmHg 70%
    01:00 -3°C° 0 mm 6 m/s 767 mmHg 69%
    02:00 -4°C° 0 mm 7 m/s 767 mmHg 68%
    03:00 -4°C° 0 mm 7 m/s 768 mmHg 67%
    04:00 -6°C° 0 mm 7 m/s 768 mmHg 64%
    05:00 -6°C° 0 mm 7 m/s 769 mmHg 62%
    06:00 -7°C° 0 mm 7 m/s 769 mmHg 60%
    07:00 -6°C° 0 mm 6 m/s 769 mmHg 53%
    08:00 -5°C° 0 mm 6 m/s 770 mmHg 47%
    09:00 -5°C° 0 mm 6 m/s 770 mmHg 41%
    10:00 -3°C° 0 mm 6 m/s 770 mmHg 37%
    11:00 -1°C° 0 mm 5 m/s 769 mmHg 33%
    12:00 0°C° 0 mm 5 m/s 769 mmHg 29%
    13:00 0°C° 0 mm 5 m/s 768 mmHg 31%
    14:00 0°C° 0 mm 4 m/s 768 mmHg 33%
    15:00 +1°C° 0 mm 4 m/s 767 mmHg 34%
    16:00 0°C° 0 mm 3 m/s 767 mmHg 43%
    17:00 -1°C° 0 mm 3 m/s 768 mmHg 53%
    18:00 -3°C° 0 mm 2 m/s 768 mmHg 62%
    19:00 -3°C° 0 mm 2 m/s 768 mmHg 62%
    20:00 -3°C° 0 mm 2 m/s 768 mmHg 62%
    21:00 -1°C° 0 mm 1 m/s 768 mmHg 62%
    22:00 -1°C° 0 mm 1 m/s 768 mmHg 60%
    23:00 -1°C° 0 mm 1 m/s 768 mmHg 58%

    22 Novembre, Jeudi

    Heure Température Précipitation Vent Pression Humidité
    00:00 -1°C° 0 mm 1 m/s 768 mmHg 56%
    01:00 -2°C° 0 mm 1 m/s 767 mmHg 54%
    02:00 -2°C° 0 mm 1 m/s 767 mmHg 52%
    03:00 -4°C° 0 mm 2 m/s 767 mmHg 50%
    04:00 -2°C° 0 mm 1 m/s 767 mmHg 47%
    05:00 -2°C° 0 mm 1 m/s 766 mmHg 45%
    06:00 -2°C° 0 mm 1 m/s 766 mmHg 42%
    07:00 -3°C° 0 mm 2 m/s 766 mmHg 41%
    08:00 -2°C° 0 mm 2 m/s 766 mmHg 41%
    09:00 -1°C° 0 mm 2 m/s 766 mmHg 40%
    10:00 +1°C° 0 mm 3 m/s 765 mmHg 37%
    11:00 +2°C° 0 mm 3 m/s 764 mmHg 34%
    12:00 +3°C° 0 mm 4 m/s 764 mmHg 31%
    13:00 +3°C° 0 mm 4 m/s 763 mmHg 32%
    14:00 +4°C° 0 mm 4 m/s 763 mmHg 33%
    15:00 +4°C° 0 mm 4 m/s 763 mmHg 34%
    16:00 +1°C° 0 mm 4 m/s 763 mmHg 40%
    17:00 0°C° 0 mm 4 m/s 763 mmHg 46%
    18:00 -2°C° 0 mm 4 m/s 764 mmHg 53%
    19:00 -2°C° 0 mm 4 m/s 764 mmHg 54%
    20:00 -4°C° 0 mm 5 m/s 764 mmHg 56%
    21:00 -4°C° 0 mm 6 m/s 765 mmHg 57%
    22:00 -5°C° 0 mm 6 m/s 765 mmHg 56%
    23:00 -5°C° 0 mm 6 m/s 765 mmHg 55%
    Voir plus